Ramona, CA

3:41 PM PST on February 12, 2016 (GMT -0800)
Ramona

Weather History for KRNM - February, 2013

Change the Weather History Date:

Thursday, February 14, 2013

  Actual Average Record
Temperature  
Mean Temperature 51 °F 51 °F  
Max Temperature 73 °F 65 °F 87 °F (1977)
Min Temperature 28 °F 37 °F 24 °F (1974)
Degree Days  
Heating Degree Days 14 14  
Month to date heating degree days 235 204  
Since 1 July heating degree days 1547 1551  
Cooling Degree Days 0 0  
Month to date cooling degree days 0 0  
Year to date cooling degree days 0 1  
Growing Degree Days 1 (Base 50)    
Moisture  
Dew Point 35 °F    
Average Humidity 63    
Maximum Humidity 96    
Minimum Humidity 29    
Precipitation  
Precipitation 0.00 in 0.12 in 2.14 in (1995)
Month to date precipitation 0.28 1.31  
Year to date precipitation 1.88 4.63  
Since 1 July precipitation 5.52  
Snow  
Snow 0.00 in - - ()
Month to date snowfall 0.0  
Year to date snowfall 0.0  
Since 1 July snowfall 0.0  
Snow Depth 0.00 in    
Sea Level Pressure  
Sea Level Pressure 30.12 in    
Wind  
Wind Speed 4 mph (WNW)    
Max Wind Speed 13 mph    
Max Gust Speed 16 mph    
Visibility 8 miles    
Events      
T = Trace of Precipitation, MM = Missing Value Source: NWS Daily Summary

Daily Weather History Graph

Daily Weather History Graph

Search for Another Location

Airport or City:

Trip Planner

Search our weather history database for the weather conditions in past years. The results will help you decide how hot, cold, wet, or windy it might be!

Date:

Astronomy

Feb. 14, 2013 Rise Set
Actual Time 6:31 AM PST 5:32 PM PST
Civil Twilight 6:06 AM PST 5:57 PM PST
Nautical Twilight 5:37 AM PST 6:26 PM PST
Astronomical Twilight 5:08 AM PST 6:55 PM PST
Moon 8:54 AM PST (2/14) 10:19 PM PST (2/14)
Length of Visible Light 11h 51m
Length of Day
11h 00m
Waxing Crescent, 22% of the Moon is Illuminated
Feb 14
Waxing Crescent
Feb 17
First Quarter
Feb 25
Full
Mar 4
Last Quarter
Mar 11
New

Hourly Weather History & Observations

Time (PST) Temp. Dew Point Humidity Pressure Visibility Wind Dir Wind Speed Gust Speed Precip Events Conditions
12:53 AM 34.0 °F 32.0 °F 92% 30.16 in 6.0 mi Calm Calm - N/A   Clear
1:53 AM 34.0 °F 32.0 °F 92% 30.15 in 5.0 mi Calm Calm - N/A   Clear
2:53 AM 33.1 °F 30.0 °F 89% 30.13 in 7.0 mi Calm Calm - N/A   Clear
3:15 AM 32.0 °F 30.2 °F 93% 30.12 in 2.5 mi Calm Calm - N/A   Clear
3:26 AM 32.0 °F 30.2 °F 93% 30.12 in 4.0 mi Calm Calm - N/A   Clear
3:53 AM 32.0 °F 30.0 °F 92% 30.12 in 4.0 mi Calm Calm - N/A   Clear
4:53 AM 30.0 °F 28.0 °F 92% 30.13 in 9.0 mi Calm Calm - N/A   Clear
5:53 AM 33.1 °F 30.0 °F 89% 30.13 in 8.0 mi Calm Calm - N/A   Clear
6:53 AM 30.0 °F 28.9 °F 96% 30.14 in 4.0 mi Calm Calm - N/A   Clear
7:53 AM 41.0 °F 35.1 °F 79% 30.14 in 10.0 mi Calm Calm - N/A   Clear
8:53 AM 53.1 °F 41.0 °F 64% 30.16 in 10.0 mi Calm Calm - N/A   Clear
9:53 AM 64.0 °F 37.9 °F 38% 30.18 in 10.0 mi NNW 6.9 mph - N/A   Clear
10:53 AM 66.0 °F 37.0 °F 34% 30.15 in 10.0 mi West 3.5 mph - N/A   Clear
11:53 AM 68.0 °F 41.0 °F 37% 30.12 in 10.0 mi WNW 10.4 mph - N/A   Clear
12:53 PM 71.1 °F 37.9 °F 30% 30.07 in 10.0 mi NW 11.5 mph - N/A   Clear
1:53 PM 72.0 °F 39.0 °F 30% 30.05 in 10.0 mi WNW 11.5 mph - N/A   Clear
2:53 PM 72.0 °F 37.9 °F 29% 30.05 in 10.0 mi WNW 8.1 mph - N/A   Clear
3:53 PM 69.1 °F 44.1 °F 40% 30.06 in 10.0 mi WNW 6.9 mph - N/A   Clear
4:53 PM 62.1 °F 44.1 °F 52% 30.09 in 10.0 mi WNW 6.9 mph - N/A   Clear
5:53 PM 52.0 °F 42.1 °F 69% 30.12 in 10.0 mi West 4.6 mph - N/A   Clear
6:53 PM 50.0 °F 39.0 °F 66% 30.14 in 10.0 mi Calm Calm - N/A   Clear
7:53 PM 44.1 °F 37.0 °F 76% 30.14 in 10.0 mi Calm Calm - N/A   Clear
8:53 PM 44.1 °F 37.0 °F 76% 30.14 in 10.0 mi Calm Calm - N/A   Clear
9:53 PM 44.1 °F 37.0 °F 76% 30.15 in 10.0 mi Calm Calm - N/A   Clear
10:53 PM 51.1 °F 28.9 °F 43% 30.14 in 10.0 mi NE 4.6 mph - N/A   Clear
11:53 PM 55.0 °F 27.0 °F 34% 30.13 in 10.0 mi Calm Calm - N/A   Clear